Location: Albert Place
(40.7505°N, 111.9230°W)
Time: 14:28:46
(UTC+00:00)

Cosmos 2219 Rocket - Pass Details

Date: 13 December 2025
Orbit: 827 x 845 km, 71.0° (Epoch: 17 January)

Event Time Altitude Azimuth Distance (km) Brightness Sun altitude
Exits shadow 12:06:27 12° 5° (N) 2,324 4.4 -28.8°
Maximum altitude 12:10:22 23° 53° (NE) 1,711 4.2 -28.1°
Drops below altitude 10° 12:14:46 10° 105° (ESE) 2,446 5.6 -27.3°
Sets 12:17:42 0° 120° (ESE) 3,373 6.4 -26.7°
